Location: Coors Field
(39.7564°N, 104.9943°W)
Time: 05:45:55
(UTC-06:00)

ISS - Visible Passes

Search period start: 25 March 2017 00:00
Search period end: 04 April 2017 00:00
Orbit: 399 x 409 km, 51.6° (Epoch: 25 March)

Date Brightness Start Highest point End Pass type
(mag) Time Alt. Az. Time Alt. Az. Time Alt. Az.
26 Mar -3.4 20:48:25 10° SW 20:51:06 46° S 20:51:06 46° S visible
27 Mar -2.7 19:56:34 10° SSW 19:59:18 25° SE 20:01:58 10° ENE visible
27 Mar -1.7 21:32:39 10° W 21:34:40 27° WNW 21:34:40 27° WNW visible
28 Mar -3.4 20:39:58 10° WSW 20:43:10 61° NW 20:45:16 20° NE visible
29 Mar -3.9 19:47:32 10° SW 19:50:45 66° SE 19:53:59 10° ENE visible
29 Mar -1.4 21:25:00 10° WNW 21:27:28 20° NNW 21:28:17 18° N visible
30 Mar -1.9 20:31:58 10° W 20:34:51 29° NNW 20:37:46 10° NE visible
30 Mar -0.3 22:10:59 10° NNW 22:11:04 10° NNW 22:11:04 10° NNW visible
31 Mar -0.9 21:17:36 10° NW 21:19:22 14° NNW 21:21:00 10° NNE visible
01 Apr -1.2 20:24:19 10° WNW 20:26:38 18° NNW 20:28:57 10° NNE visible
02 Apr -0.8 21:10:20 10° NNW 21:11:17 11° N 21:12:16 10° N visible
03 Apr -1.0 20:16:54 10° NW 20:18:28 13° NNW 20:20:01 10° NNE visible
03 Apr -0.7 21:54:58 10° NNW 21:55:27 11° N 21:55:27 11° N visible
